Regional Weather Roundup
Issued by NWS Raleigh/Durham, NC

Current Version | Previous Version | Graphics & Text | Print | Product List | Glossary On
Versions: 1 2 3 4 5 6 7 8 9 10 11 12 13 14 15 16 17 18 19 20 21 22 23 24 25 26 27 28 29 30 31 32 33 34 35 36 37 38 39 40 41 42 43 44 45 46 47 48 49 50
000
ASUS42 KRAH 220810
RWRRAH
NORTH CAROLINA WEATHER ROUNDUP
NATIONAL WEATHER SERVICE RALEIGH NC
300 AM EST SAT NOV 22 2014

NOTE: "FAIR" INDICATES FEW OR NO CLOUDS BELOW 12,000 FEET WITH NO
SIGNIFICANT WEATHER AND/OR OBSTRUCTIONS TO VISIBILITY.

NCZ001-053-055-056-065-067-220900-
WESTERN NORTH CAROLINA

CITY           SKY/WX    TMP DP  RH WIND       PRES   REMARKS
ASHEVILLE      CLEAR     24  17  74 CALM      30.48R
JEFFERSON      PTCLDY    27   6  40 CALM      30.42S
MORGANTON      CLEAR     22  19  87 CALM      30.56R
HICKORY        CLEAR     28  20  71 CALM      30.52R
RUTHERFORDTON  CLEAR     27  20  75 CALM      30.53R
MOUNT AIRY     CLEAR     25  15  65 CALM      30.53R
BOONE          CLEAR     20  13  73 CALM      30.44R
$$

NCZ021-022-025-041-071-084-088-220900-
CENTRAL NORTH CAROLINA

CITY           SKY/WX    TMP DP  RH WIND       PRES   REMARKS
CHARLOTTE      CLEAR     31  11  43 CALM      30.54R
GREENSBORO     CLEAR     27  13  55 CALM      30.51S
WINSTON-SALEM  CLEAR     28  14  55 CALM      30.53S
RALEIGH-DURHAM PTCLDY    27  15  61 CALM      30.55R
FORT BRAGG     CLEAR     26  17  66 CALM      30.54S
FAYETTEVILLE   CLEAR     27  17  66 NE3       30.54S
BURLINGTON     CLEAR     21  14  74 CALM      30.54R
LAURINBURG     CLEAR     27  16  63 NE3       30.55R
$$

NCZ011-015-027-028-043-044-047-080-103-220900-
NORTHEASTERN NORTH CAROLINA

CITY           SKY/WX    TMP DP  RH WIND       PRES   REMARKS
ROCKY MT-WILSO CLEAR     25  17  72 CALM      30.56S
GREENVILLE     CLEAR     27  23  86 CALM      30.56S
WASHINGTON     CLEAR     25  19  77 CALM      30.57S
ELIZABETH CITY CLEAR     29  20  69 CALM      30.57S
MANTEO         CLEAR     32  26  77 CALM      30.55S
CAPE HATTERAS  CLEAR     40  29  64 N5        30.54R
$$

NCZ078-087-090-091-093-098-101-220900-
SOUTHEASTERN NORTH CAROLINA

CITY           SKY/WX    TMP DP  RH WIND       PRES   REMARKS
LUMBERTON      CLEAR     27  16  63 CALM      30.55R
GOLDSBORO      CLEAR     27  19  72 CALM      30.54S
KINSTON        CLEAR     24  19  82 CALM      30.57S
KENANSVILLE    CLEAR     25  19  78 CALM      30.57R
NEW BERN       CLEAR     31  21  66 CALM      30.57S
CHERRY POINT   CLEAR     31  25  78 CALM      30.57S
BEAUFORT       CLEAR     33  23  66 N5        30.55S WCI  29
JACKSONVILLE   CLEAR     31  22  69 N5        30.55S WCI  26
WILMINGTON     CLEAR     30  23  75 NE7       30.54R WCI  23
$$



USA.gov is the U.S. government's official web portal to all federal, state and local government web resources and services.